When you browse on this site, cookies collect data to enhance your experience and personalize the content and advertising you see.
Visit our Privacy Policy to learn more. By continuing to use the site, you agree to this use of cookies and data.
  • In Austria
  • List of Countries
  • For 7 days
  • Water Temperature
  • Satellite Maps
  • Weather Map
  • News
  • Weather Widgets
  • user-avatar
    Login

    Hourly Weather Faro

    Today, 26 May, Sunday

    Time Temperature Precipitation Wind Pressure Humidity
    00:00 +21°C° 0 mm 4 mps 761 mmHg 35%
    01:00 +21°C° 0 mm 4 mps 761 mmHg 38%
    02:00 +20°C° 0 mm 3 mps 761 mmHg 40%
    03:00 +20°C° 0 mm 3 mps 761 mmHg 42%
    04:00 +19°C° 0 mm 2 mps 761 mmHg 43%
    05:00 +20°C° 0 mm 2 mps 761 mmHg 46%
    06:00 +23°C° 0 mm 2 mps 761 mmHg 41%
    07:00 +26°C° 0 mm 2 mps 761 mmHg 37%
    08:00 +28°C° 0 mm 2 mps 761 mmHg 32%
    09:00 +30°C° 0 mm 2 mps 761 mmHg 29%
    10:00 +32°C° 0 mm 2 mps 761 mmHg 26%
    11:00 +35°C° 0 mm 3 mps 761 mmHg 23%
    12:00 +35°C° 0 mm 3 mps 760 mmHg 24%
    13:00 +35°C° 0 mm 4 mps 760 mmHg 24%
    14:00 +35°C° 0 mm 5 mps 760 mmHg 25%
    15:00 +35°C° 0 mm 4 mps 760 mmHg 25%
    16:00 +34°C° 0 mm 4 mps 759 mmHg 26%
    17:00 +34°C° 0 mm 4 mps 759 mmHg 27%
    18:00 +32°C° 0 mm 4 mps 759 mmHg 30%
    19:00 +29°C° 0 mm 4 mps 759 mmHg 33%
    20:00 +27°C° 0 mm 3 mps 760 mmHg 37%
    21:00 +26°C° 0 mm 4 mps 760 mmHg 39%
    22:00 +25°C° 0 mm 4 mps 760 mmHg 42%
    23:00 +25°C° 0 mm 5 mps 760 mmHg 45%

    Tomorrow, 27 May, Monday

    Time Temperature Precipitation Wind Pressure Humidity
    00:00 +23°C° 0 mm 5 mps 759 mmHg 49%
    01:00 +22°C° 0 mm 4 mps 759 mmHg 53%
    02:00 +21°C° 0 mm 4 mps 759 mmHg 57%
    03:00 +21°C° 0 mm 4 mps 759 mmHg 58%
    04:00 +21°C° 0 mm 3 mps 759 mmHg 60%
    05:00 +20°C° 0 mm 3 mps 759 mmHg 62%
    06:00 +24°C° 0 mm 3 mps 759 mmHg 54%
    07:00 +26°C° 0 mm 2 mps 759 mmHg 47%
    08:00 +29°C° 0 mm 2 mps 759 mmHg 39%
    09:00 +31°C° 0 mm 2 mps 759 mmHg 34%
    10:00 +34°C° 0 mm 2 mps 759 mmHg 30%
    11:00 +36°C° 0 mm 3 mps 759 mmHg 25%
    12:00 +37°C° 0 mm 3 mps 758 mmHg 25%
    13:00 +37°C° 0 mm 4 mps 758 mmHg 25%
    14:00 +37°C° 0 mm 5 mps 757 mmHg 25%
    15:00 +36°C° 0 mm 5 mps 757 mmHg 26%
    16:00 +35°C° 0 mm 6 mps 757 mmHg 28%
    17:00 +35°C° 0 mm 6 mps 757 mmHg 30%
    18:00 +32°C° 0 mm 6 mps 757 mmHg 36%
    19:00 +29°C° 0 mm 7 mps 758 mmHg 42%
    20:00 +26°C° 0 mm 7 mps 758 mmHg 49%
    21:00 +24°C° 0 mm 7 mps 758 mmHg 49%
    22:00 +22°C° 0 mm 6 mps 758 mmHg 50%
    23:00 +21°C° 0 mm 6 mps 758 mmHg 50%

    Day after tomorrow, 28 May, Tuesday

    Time Temperature Precipitation Wind Pressure Humidity
    00:00 +20°C° 0 mm 5 mps 758 mmHg 56%
    01:00 +19°C° 0 mm 5 mps 758 mmHg 61%
    02:00 +18°C° 0 mm 4 mps 757 mmHg 67%
    03:00 +18°C° 0 mm 4 mps 757 mmHg 69%
    04:00 +18°C° 0 mm 3 mps 757 mmHg 72%
    05:00 +18°C° 0 mm 3 mps 757 mmHg 75%
    06:00 +21°C° 0 mm 3 mps 757 mmHg 64%
    07:00 +25°C° 0 mm 2 mps 758 mmHg 54%
    08:00 +28°C° 0 mm 2 mps 758 mmHg 43%
    09:00 +31°C° 0 mm 2 mps 758 mmHg 37%
    10:00 +34°C° 0 mm 2 mps 758 mmHg 31%
    11:00 +37°C° 0 mm 2 mps 758 mmHg 26%
    12:00 +37°C° 0 mm 3 mps 758 mmHg 25%
    13:00 +38°C° 0 mm 3 mps 758 mmHg 25%
    14:00 +38°C° 0 mm 4 mps 757 mmHg 24%
    15:00 +37°C° 0 mm 4 mps 757 mmHg 26%
    16:00 +36°C° 0 mm 4 mps 757 mmHg 28%
    17:00 +35°C° 0 mm 4 mps 757 mmHg 30%
    18:00 +33°C° 0 mm 4 mps 757 mmHg 34%
    19:00 +30°C° 0 mm 3 mps 758 mmHg 38%
    20:00 +28°C° 0 mm 3 mps 758 mmHg 43%
    21:00 +27°C° 0 mm 3 mps 758 mmHg 41%
    22:00 +27°C° 0 mm 3 mps 759 mmHg 40%
    23:00 +27°C° 0 mm 4 mps 759 mmHg 39%

    29 May, Wednesday

    Time Temperature Precipitation Wind Pressure Humidity
    00:00 +26°C° 0 mm 4 mps 758 mmHg 37%
    01:00 +25°C° 0 mm 4 mps 758 mmHg 36%
    02:00 +25°C° 0 mm 5 mps 758 mmHg 34%
    03:00 +25°C° 0 mm 4 mps 758 mmHg 34%
    04:00 +23°C° 0 mm 4 mps 758 mmHg 33%
    05:00 +24°C° 0 mm 3 mps 758 mmHg 33%
    06:00 +26°C° 0 mm 3 mps 759 mmHg 32%
    07:00 +29°C° 0 mm 3 mps 759 mmHg 32%
    08:00 +31°C° 0 mm 3 mps 760 mmHg 31%
    09:00 +33°C° 0 mm 3 mps 760 mmHg 30%
    10:00 +35°C° 0 mm 3 mps 760 mmHg 28%
    11:00 +36°C° 0 mm 3 mps 760 mmHg 27%
    12:00 +37°C° 0 mm 3 mps 760 mmHg 26%
    13:00 +37°C° 0 mm 4 mps 759 mmHg 25%
    14:00 +38°C° 0 mm 4 mps 759 mmHg 25%
    15:00 +36°C° 0 mm 4 mps 759 mmHg 28%
    16:00 +34°C° 0 mm 3 mps 759 mmHg 32%
    17:00 +33°C° 0 mm 3 mps 759 mmHg 36%
    18:00 +30°C° 0 mm 2 mps 759 mmHg 42%
    19:00 +27°C° 0 mm 2 mps 760 mmHg 48%
    20:00 +25°C° 0 mm 1 mps 760 mmHg 54%
    21:00 +24°C° 0 mm 2 mps 761 mmHg 57%
    22:00 +24°C° 0 mm 2 mps 761 mmHg 59%
    23:00 +23°C° 0 mm 2 mps 761 mmHg 62%

    30 May, Thursday

    Time Temperature Precipitation Wind Pressure Humidity
    00:00 +21°C° 0 mm 3 mps 761 mmHg 64%
    01:00 +21°C° 0 mm 3 mps 761 mmHg 66%
    02:00 +20°C° 0 mm 3 mps 761 mmHg 69%
    03:00 +20°C° 0 mm 3 mps 761 mmHg 69%
    04:00 +21°C° 0 mm 3 mps 761 mmHg 69%
    05:00 +21°C° 0 mm 3 mps 761 mmHg 69%
    06:00 +23°C° 0 mm 4 mps 761 mmHg 57%
    07:00 +27°C° 0 mm 4 mps 762 mmHg 45%
    08:00 +29°C° 0 mm 5 mps 762 mmHg 33%
    09:00 +32°C° 0 mm 5 mps 762 mmHg 30%
    10:00 +34°C° 0 mm 4 mps 762 mmHg 26%
    11:00 +36°C° 0 mm 4 mps 762 mmHg 22%
    12:00 +36°C° 0 mm 5 mps 761 mmHg 22%
    13:00 +37°C° 0 mm 5 mps 761 mmHg 21%
    14:00 +37°C° 0 mm 5 mps 760 mmHg 21%
    15:00 +35°C° 0 mm 5 mps 760 mmHg 28%
    16:00 +33°C° 0 mm 5 mps 760 mmHg 35%
    17:00 +29°C° 0 mm 5 mps 760 mmHg 41%
    18:00 +27°C° 0 mm 5 mps 761 mmHg 49%
    19:00 +25°C° 0 mm 5 mps 761 mmHg 57%
    20:00 +22°C° 0 mm 5 mps 762 mmHg 65%
    21:00 +21°C° 0 mm 5 mps 762 mmHg 65%
    22:00 +21°C° 0 mm 5 mps 762 mmHg 65%
    23:00 +21°C° 0 mm 5 mps 762 mmHg 65%

    31 May, Friday

    Time Temperature Precipitation Wind Pressure Humidity
    00:00 +20°C° 0 mm 6 mps 762 mmHg 66%
    01:00 +20°C° 0 mm 6 mps 761 mmHg 66%
    02:00 +20°C° 0 mm 6 mps 761 mmHg 67%
    03:00 +20°C° 0 mm 6 mps 761 mmHg 66%
    04:00 +20°C° 0 mm 5 mps 762 mmHg 65%
    05:00 +20°C° 0 mm 5 mps 762 mmHg 64%
    06:00 +22°C° 0 mm 5 mps 762 mmHg 56%
    07:00 +26°C° 0 mm 5 mps 762 mmHg 47%
    08:00 +28°C° 0 mm 6 mps 762 mmHg 39%
    09:00 +30°C° 0 mm 6 mps 762 mmHg 33%
    10:00 +33°C° 0 mm 6 mps 761 mmHg 26%
    11:00 +34°C° 0 mm 5 mps 761 mmHg 20%
    12:00 +35°C° 0 mm 6 mps 761 mmHg 21%
    13:00 +35°C° 0 mm 6 mps 760 mmHg 21%
    14:00 +35°C° 0 mm 6 mps 760 mmHg 22%
    15:00 +34°C° 0 mm 6 mps 760 mmHg 25%
    16:00 +32°C° 0 mm 7 mps 760 mmHg 29%
    17:00 +30°C° 0 mm 7 mps 760 mmHg 33%
    18:00 +27°C° 0 mm 6 mps 760 mmHg 40%
    19:00 +24°C° 0 mm 6 mps 760 mmHg 48%
    20:00 +21°C° 0 mm 5 mps 761 mmHg 55%
    21:00 +21°C° 0 mm 6 mps 761 mmHg 56%
    22:00 +21°C° 0 mm 6 mps 761 mmHg 56%
    23:00 +20°C° 0 mm 7 mps 761 mmHg 57%
    Show more